Location: ??????????
(44.2167°N, 135.5333°E)
Time: 14:19:51
(UTC+00:00)

USA 229 DEB - Pass Details

Date: 15 June 2025
Orbit: 852 x 1359 km, 63.4° (Epoch: 26 June)

Event Time Altitude Azimuth Distance (km) Brightness Sun altitude
Rises 16:18:52 0° 322° (NW) 3,980 7.1 -20.0°
Reaches altitude 10° 16:21:27 10° 323° (NW) 3,086 6.5 -19.8°
Maximum altitude 16:29:01 86° 54° (NE) 1,273 4.0 -19.3°
Drops below altitude 10° 16:37:19 10° 143° (SE) 3,370 6.0 -18.8°
Sets 16:40:14 0° 144° (SE) 4,364 6.6 -18.5°
